Вернуться в каталог

ORBCOMM FM 3

АктивенСвязьLEO
NORAD 25158·PAYLOAD·🇺🇸 United States

Запущен Feb 10, 1998 с Vandenberg Space Force Base

Loading…

Ближайшие Пролёты (ближайшие 24 часа)

TLE

СвежийSource: Space-Track

Эпоха: Sep 14, 2026, 05:52 UTC

1 25158U 98007B   26257.24483799  .00000558  00000-0  23659-3 0  9999
2 25158 107.9614 349.2004 0044800 175.9376 184.2135 14.35647159489186

Отслеживайте ORBCOMM FM 3 в реальном времени с AllMySat

Download on the App Store